Location: Blanquefort
(43.6745°N, 0.8165°E)
Time: 07:23:26
(UTC+00:00)

Daily predictions for brighter satellites

Satellite Brightness Start Highest point End
(mag) Time Altitude Azimuth Time Altitude Azimuth Time Altitude Azimuth
BREEZE-M DEB (TANK) 3.2 20:05:02 10° SSE 20:06:18 14° SE 20:07:52 10° E
NOSS 3-3 (C) 4.2 20:02:08 10° SW 20:07:20 68° NW 20:13:30 10° NNE
MetOp-B 4.3 20:02:36 10° SSE 20:07:51 61° ENE 20:13:09 10° N
Lacrosse 5 rocket 4.1 20:09:19 10° NW 20:11:40 15° NNW 20:14:01 10° NNE
Cosmos 1782 Rocket 4.1 20:08:09 10° NNW 20:12:31 61° W 20:16:49 10° S
Cosmos 2242 Rocket 3.6 20:08:46 10° S 20:13:04 62° E 20:17:24 10° NNE
Helios 1B rocket 2.5 20:12:38 10° SSE 20:16:11 49° ENE 20:19:46 10° N
Meteor PRIRODA 3.5 20:14:55 10° SE 20:17:35 42° ENE 20:20:18 10° N
Helios 1A 3.6 20:15:53 10° NNE 20:19:27 32° E 20:22:59 10° SSE
TSX-5 4.1 20:19:58 10° NNW 20:22:55 36° ENE 20:25:51 11° SE
Cosmos 1570 Rocket 4.2 20:18:03 10° NNW 20:23:21 75° WSW 20:28:34 10° SSE
Terra 2.0 20:19:29 10° SSE 20:24:05 56° ENE 20:28:42 10° N
NOSS 3-4 (A) 4.2 20:18:49 10° NNW 20:25:30 56° NE 20:33:06 11° SE
NOSS 3-4 (C) 4.2 20:18:51 10° NNW 20:25:32 56° NE 20:33:06 11° SE
Cosmos 1634 Rocket 4.0 20:23:16 10° N 20:29:28 83° E 20:35:38 10° S
Cosmos 1606 3.5 20:27:11 10° NNW 20:30:03 37° W 20:32:54 10° SSW
Spot 2 Rocket 4.0 20:27:14 10° SE 20:32:02 45° ENE 20:36:52 10° N
IRS-1A Rocket 4.3 20:26:37 10° SSE 20:32:02 64° ENE 20:37:33 10° N
Cosmos 1486 Rocket 4.1 20:29:34 10° SSW 20:34:50 86° WNW 20:40:11 10° NNE
USA 186 3.8 20:33:20 10° SSW 20:35:31 21° W 20:37:42 10° NW
SPOT 5 3.9 20:31:36 10° S 20:36:41 52° W 20:41:53 10° NNW
NOSS 5 (C) 4.2 20:33:55 10° NW 20:37:11 88° NE 20:39:49 15° SE
Cosmos 1674 Rocket 3.9 20:33:10 10° SSE 20:37:22 45° E 20:41:36 10° NNE
Cosmos 1818 4.3 20:33:08 10° NNW 20:38:19 43° NE 20:42:53 13° ESE
ERS-1 Rocket 3.0 20:38:18 10° SSE 20:43:17 83° WSW 20:48:19 10° NNW
USA 245 3.7 20:40:44 14° SE 20:44:17 48° ENE 20:47:40 10° N
Cosmos 2279 Rocket 4.0 20:40:01 10° N 20:46:17 77° E 20:52:31 10° SSE
Cosmos 2297 3.7 20:41:30 10° SSW 20:47:08 81° ESE 20:52:50 10° NNE
Meteor 1-21 Rocket 4.2 20:41:35 10° S 20:47:12 68° E 20:52:46 10° NNE
Okean-O 2.7 20:46:11 10° S 20:50:33 79° WSW 20:54:58 10° NNW
Cosmos 1812 4.0 20:50:23 10° NNE 20:52:41 18° ENE 20:53:43 16° E
Cosmos 1378 Rocket 3.5 20:49:03 10° S 20:53:21 87° WNW 20:57:38 10° N
Cosmos 1656 Rocket 4.5 20:47:56 10° SW 20:53:22 54° WNW 20:58:45 10° NNE
COSMOS 2406 4.4 20:50:01 10° NW 20:55:18 39° WSW 21:00:34 10° S
Okean O Rocket 2.4 20:53:04 10° S 20:57:17 50° W 21:01:34 10° NNW
BlueWalker 3 4.4 20:54:43 10° NW 20:57:20 18° N 20:59:58 10° NE
Cosmos 990 Rocket 4.2 20:52:42 10° S 20:57:39 49° ESE 21:02:39 10° NNE
Cosmos 1025 Rocket 3.3 20:54:32 15° SSE 20:57:54 47° E 21:02:05 10° NNE
In-Cosmos 22 Rocket 4.5 21:04:25 10° SSW 21:10:13 76° W 21:16:00 10° N
Cosmos 2369 Rocket 2.9 21:16:50 10° SW 21:22:27 57° WNW 21:28:03 10° NNE
Cosmos 1354 Rocket 4.4 21:21:24 10° SSW 21:26:35 66° WNW 21:31:48 10° NNE
ASTEX 1 3.3 21:23:37 10° N 21:28:30 86° W 21:32:10 18° S
SAR-Lupe-2 3.6 21:29:36 32° S 21:31:09 79° WSW 21:34:46 10° NNW
DELTA 2 R/B (1) 3.7 21:29:39 10° WSW 21:34:57 48° SSE 21:38:43 19° E
ISS -1.7 21:32:12 10° NW 21:35:01 24° NNE 21:37:42 11° ENE
Cosmos 1937 Rocket 4.4 21:34:18 26° ESE 21:35:16 28° E 21:39:36 10° NE
Cosmos 2297 Rocket 4.3 21:31:49 10° N 21:35:25 17° NE 21:39:00 10° E
Ariane Rocket 3.0 21:32:58 25° SSE 21:35:56 85° WSW 21:41:01 10° NNW
COBE Rocket 3.7 21:33:49 10° NNE 21:38:25 63° E 21:40:36 30° S
Tiangong -0.7 21:36:27 10° SW 21:38:13 26° SSW 21:38:13 26° SSW
Okean 2 Rocket 3.9 21:35:58 10° NNW 21:40:10 46° W 21:42:59 19° SSW
Cosmos 2098 Rocket 4.1 21:37:56 10° NNE 21:40:36 22° ENE 21:40:46 21° E
CZ-4C R/B 1.8 21:40:13 10° SW 21:44:23 77° NW 21:49:41 10° NE
Cosmos 44 3.5 21:45:12 10° SW 21:49:26 61° NW 21:53:49 10° NNE
Lacrosse 5 rocket 4.2 21:48:54 10° NNW 21:50:27 12° N 21:52:00 10° NNE
Cosmos 1515 3.3 21:49:18 10° N 21:51:23 50° NNE 21:51:23 50° NNE
Okean 1 Rocket 4.0 21:50:00 10° NNW 21:54:08 42° W 21:56:28 22° SSW
Cosmos 1975 Rocket 3.1 21:53:28 44° SSE 21:54:33 59° E 21:58:48 10° NNE
Nadezhda 4 Rocket 4.4 21:51:05 11° SSW 21:57:04 62° W 22:03:21 10° N
Terra 4.2 21:59:01 10° SW 22:01:58 16° W 22:04:54 10° NW
Cosmos 2228 3.5 21:58:29 10° N 22:02:31 42° ENE 22:03:10 39° ESE
Cosmos 1455 Rocket 3.1 22:01:27 10° NNW 22:05:45 71° W 22:07:03 43° SSW
Cosmos 2285 Rocket 4.2 21:59:43 10° SSW 22:06:04 73° WNW 22:12:31 10° NNE
Cosmos 1867 3.4 22:02:46 18° SSW 22:06:53 80° ESE 22:12:22 10° NE
Cosmos 2227 Rocket 4.5 22:04:55 10° N 22:08:02 15° NE 22:11:10 10° ENE
BREEZE M DEB (TANK) 2.4 22:04:56 10° WSW 22:09:35 78° NNW 22:10:09 52° NE
BREEZE-M DEB (TANK) 4.4 22:05:17 10° W 22:15:24 50° NNW 22:18:45 10° ENE
Cosmos 2026 Rocket 4.0 22:12:16 27° SSW 22:15:46 79° W 22:21:51 10° N
Cosmos 1898 Rocket 3.4 22:16:18 31° SSW 22:18:49 86° WNW 22:24:06 10° NNE
Iridium 82 4.4 22:17:39 10° N 22:20:46 73° NW 22:20:46 73° NW
CZ-2C R/B 4.2 22:18:57 10° NNE 22:23:26 42° E 22:23:40 42° ESE
Cosmos 1812 4.3 22:23:33 10° NW 22:25:53 19° W 22:26:19 19° W
Cosmos 1538 Rocket 4.4 22:21:04 10° NNW 22:26:18 55° WSW 22:28:01 39° SSW
USA 81 4.1 22:25:23 39° SSW 22:27:22 77° W 22:32:40 10° N
ARIANE 5 R/B 3.2 22:30:39 41° E 22:31:16 43° ENE 22:35:29 10° N
Cosmos 1553 Rocket 4.0 22:27:30 10° N 22:33:47 72° E 22:35:55 44° SSE
BlueWalker 3 3.3 22:32:30 10° NW 22:35:51 33° NNE 22:36:56 27° ENE
SL-08 ROCKET BODY 4.5 22:36:29 45° SE 22:37:58 58° E 22:43:45 10° NNE
Cosmos 1092 Rocket 4.4 22:35:06 25° SSW 22:38:48 59° W 22:45:03 10° N
CZ-4C R/B 3.3 22:43:23 10° NNE 22:46:38 68° NNE 22:46:38 68° NNE
DELTA 2 DEB (DPAF) 4.2 22:43:14 10° N 22:47:05 57° WNW 22:47:31 53° WSW
Cosmos 1536 Rocket 3.7 22:48:20 57° E 22:48:20 57° E 22:52:34 10° NNE
Cosmos 1656 3.5 22:47:10 48° SSW 22:48:47 85° ESE 22:54:22 10° NNE
RESURS DK-1 2.4 22:48:41 10° NNW 22:52:29 65° NE 22:52:29 65° NE
S3M 4.4 22:48:32 10° N 22:54:41 52° ENE 22:56:23 41° ESE
Cosmos 2263 Rocket 4.4 22:52:02 10° N 22:55:42 17° NE 22:59:19 10° E
Cosmos 1544 Rocket 3.6 22:51:55 10° NNW 22:56:16 67° W 22:56:31 66° WSW
Cosmos 1606 Rocket 4.4 22:54:42 10° N 22:58:48 38° ENE 22:58:50 38° ENE
Cosmos 2058 3.3 23:01:15 52° NE 23:01:15 52° NE 23:04:31 10° NNE
Cosmos 1400 Rocket 3.0 22:59:43 10° NNW 23:03:02 62° NW 23:03:02 62° NW
Meteor 2-20 Rocket 4.3 22:57:40 10° N 23:03:42 84° W 23:05:05 55° S
USA 215 4.1 22:58:18 10° E 23:04:30 47° NNE 23:10:42 10° NW
Cosmos 1782 3.4 23:06:32 10° N 23:09:26 48° NNE 23:09:26 48° NNE
Cosmos 2112 Rocket 3.9 23:06:22 10° NNW 23:11:41 83° WSW 23:12:22 68° S
ISS -2.0 23:08:44 10° WNW 23:10:32 29° NW 23:10:32 29° NW
Cosmos 1862 4.4 23:18:17 34° NE 23:18:17 34° NE 23:20:43 10° NNE
Cosmos 2297 Rocket 2.1 23:14:35 10° NNW 23:20:17 89° ENE 23:21:13 64° SSE
DELTA 2 R/B (1) 4.1 23:15:34 10° W 23:19:25 41° WSW 23:19:25 41° WSW
ALOS 2 2.5 23:22:00 81° NE 23:22:00 81° NE 23:26:19 10° N
Cosmos 1726 Rocket 4.1 23:17:34 10° N 23:22:05 51° ENE 23:22:11 51° E
Cosmos 1680 Rocket 3.7 23:17:05 10° NNW 23:22:14 56° WSW 23:22:44 53° SW
PSLV R/B 3.8 23:20:02 10° NNE 23:24:32 62° E 23:24:32 62° E
Cosmos 1980 Rocket 3.3 23:28:23 29° E 23:28:23 29° E 23:32:53 10° NE
Lacrosse 5 rocket 3.4 23:25:47 10° NNW 23:29:01 24° NNE 23:31:05 16° ENE
MetOp-A 4.4 23:33:09 35° WNW 23:33:09 35° WNW 23:36:00 10° NNW
Cosmos 1697 Rocket 2.6 23:32:02 65° SSE 23:32:34 70° ESE 23:38:14 10° NNE
Cosmos 1356 Rocket 4.2 23:31:49 10° N 23:35:17 43° ENE 23:35:17 43° ENE
Cosmos 1892 Rocket 3.8 23:39:40 58° ENE 23:39:40 58° ENE 23:43:25 10° NNE
Spot 1 4.2 23:37:32 10° NNE 23:42:05 73° E 23:42:05 73° E
Meteor 2-3 Rocket 3.8 23:46:45 58° SE 23:47:29 63° E 23:53:12 10° NNE
GEOS 3 Rocket 3.6 23:45:25 10° NE 23:50:43 82° NW 23:51:46 58° SW
Cosmos 1125 Rocket 3.6 23:52:54 58° ESE 23:52:58 58° ESE 23:58:07 10° NNE
Cosmos 2227 Rocket 2.2 23:47:23 10° NNW 23:53:05 75° ENE 23:54:06 59° SE
Cosmos 494 Rocket 4.4 23:49:32 10° NNW 23:54:32 49° WSW 23:54:34 49° WSW
